Location: �mondeville
(49.4591°N, 1.3431°W)
Time: 07:05:40
(UTC+00:00)

USA 32 - Pass Details

Date: 22 October 2019
Orbit: 778 x 782 km, 85.0° (Epoch: 28 October)

Event Time Altitude Azimuth Distance (km) Brightness Sun altitude
Exits shadow 03:57:48 49° 172° (S) 1,004 4.5 -26.4°
Maximum altitude 03:59:16 81° 94° (E) 797 4.0 -26.1°
Drops below altitude 10° 04:04:32 10° 8° (N) 2,346 6.7 -25.3°
Sets 04:06:53 0° 8° (N) 3,279 7.5 -24.9°
